Preview of NWS' New Version of Forecast
This preview is not operational and should not be used for support decisions.

Regional Weather Roundup (RWR)

Issued by National Weather Service (NWS)

                            
000
ASUS43 KDTX 200201
RWRMI 
MICHIGAN HOURLY REGIONAL WEATHER ROUNDUP
NATIONAL WEATHER SERVICE DETROIT/PONTIAC MI
1000 PM EDT WED JUN 19 2019

NOTE: "FAIR" INDICATES FEW OR NO CLOUDS BELOW 12,000 FEET WITH NO
SIGNIFICANT WEATHER AND/OR OBSTRUCTION TO VISIBILITY.

MIZ047>049-052>055-059>063-066>070-074>076-081>083-200300-
SOUTHEAST LOWER MICHIGAN
  
CITY           SKY/WX    TMP DP  RH WIND       PRES   REMARKS
ADRIAN         CLOUDY    71  57  61 SE6       29.67F                  
ALMA           FAIR      65  58  77 NE9       29.72F                  
ANN ARBOR      MOCLDY    70  59  68 SE5       29.68S                  
BAD AXE        CLOUDY    58  55  87 CALM      29.73S                  
DETROIT CITY   FAIR      69  59  70 NE9       29.69S                  
DETROIT        CLOUDY    71  57  61 S5        29.68S                  
FLINT          MOCLDY    69  63  81 NE13      29.70S                  
GROSSE ILE     FAIR      68  59  73 CALM      29.67S                  
HILLSDALE      LGT RAIN  69  66  90 E6        29.67F                  
HOWELL         CLOUDY    68  63  84 CALM      29.69F                  

CITY           SKY/WX    TMP DP  RH WIND       PRES   REMARKS
JACKSON        CLOUDY    69  66  90 NE5       29.67F                  
LAMBERTVILLE   MOCLDY    71  59  66 CALM      29.67F                  
LANSING        CLOUDY    67  63  87 NE6       29.70S                  
LAPEER         CLOUDY    65  62  88 NE3       29.72F                  
MASON          HVY RAIN  68  65  91 N13       29.69F                  
PONTIAC        CLOUDY    69  65  86 NE9       29.69S                  
PORT HOPE        N/A     55  52  89 N3        29.73F                  
PORT HURON     FAIR      61  54  77 CALM      29.71F                  
TRI CITIES     FAIR      62  60  93 NE9       29.73S                  
MIDLAND        NOT AVBL                                               
SAGINAW HB     MOCLDY    64  61  88 N6        29.72S                  
$$
MIZ043>046-050>051-056>058-064>065-071>073-077>080-200300-
SOUTHWEST LOWER MICHIGAN
  
CITY           SKY/WX    TMP DP  RH WIND       PRES   REMARKS
BATTLE CREEK   RAIN      67  66  97 NE6       29.67F                  
BENTON HARBOR  CLOUDY    61  58  90 VRB3      29.65F                  
BIG RAPIDS     CLOUDY    64  62  91 NE3       29.72S                  
COLDWATER      RAIN      68  68 100 N5        29.66F                  
FREMONT        LGT RAIN  65  61  86 NE5       29.70S                  
HOLLAND        MOCLDY    70  63  78 NE6       29.66F                  
GRAND RAPIDS   CLOUDY    69  60  73 NE12      29.68S                  
IONIA          DRIZZLE   66  57  72 NE7       29.69F                  
KALAMAZOO      RAIN      68  65  90 NE3       29.67S FOG              
MARSHALL       LGT RAIN  69  69 100 NE3       29.67F                  
MUSKEGON       LGT RAIN  68  61  78 N6        29.69F                  
SOUTH HAVEN    LGT RAIN  62  60  92 CALM      29.66F                  
$$
MIZ016>042-200300-
NORTHERN LOWER MICHIGAN
  
CITY           SKY/WX    TMP DP  RH WIND       PRES   REMARKS
ALPENA         MOCLDY    57  53  86 CALM      29.77R                  
BEAVER ISLAND  FAIR      58  52  79 NE6       29.78S                  
BELLAIRE       MOCLDY    63  56  76 CALM      29.75S                  
CADILLAC       CLOUDY    64  58  82 N3        29.74R                  
CHARLEVOIX     FAIR      60  55  86 N9        29.79S                  
FRANKFORT      FAIR      62  54  75 NE3       29.75R                  
GAYLORD        MOCLDY    63  58  83 CALM      29.77S                  
HARBOR SPRINGS MOCLDY    63  56  79 NE5       29.77R                  
HOUGHTON LAKE  CLOUDY    63  58  83 SE3       29.75S                  
MANISTEE       FAIR      62  55  77 CALM      29.73S                  
OSCODA         CLOUDY    56  54  91 NE5       29.75S                  
PELLSTON       FAIR      62  56  80 N5        29.78R                  
ROGERS CITY    FAIR      56  52  88 CALM      29.78S                  
TRAVERSE CITY  MOCLDY    61  55  81 N5        29.73F                  
$$
MIZ007>008-015-200300-
EASTERN UPPER MICHIGAN
  
CITY           SKY/WX    TMP DP  RH WIND       PRES   REMARKS
KINROSS        FAIR      57  46  66 N13       29.79R                  
MACKINAC ISLAN CLOUDY    60  48  64 N8        29.77S                  
NEWBERRY       FAIR      56  45  66 CALM      29.80S                  
S. S. MARIE    FAIR      58  48  69 W3        29.78R                  
MUNISING         N/A     51  48  89 NE6       29.82S                  
$$
MIZ004>006-011>014-085-200300-
CENTRAL UPPER MICHIGAN
  
CITY           SKY/WX    TMP DP  RH WIND       PRES   REMARKS
ESCANABA       FAIR      62  48  60 N6        29.79S                  
MENOMINEE      FAIR      61  54  77 CALM      29.77F                  
SAWYER-GWINN   CLEAR     57  46  67 NE6       29.81S                  
$$
MIZ001>003-009>011-084-200300-
WESTERN UPPER MICHIGAN
  
CITY           SKY/WX    TMP DP  RH WIND       PRES   REMARKS
IRON MOUNTAIN  FAIR      62  40  44 NE6       29.79S                  
HOUGHTON       FAIR      55  46  71 CALM      29.82F                  
COPPER HARBOR    N/A     47  43  86 CALM      29.83S                  
IRONWOOD       FAIR      60  47  61 NE3       29.82S                  
$$

ABBREVIATIONS USED IN REMARKS
   TC - TEMPERATURE IN CELSIUS
  WCI - WIND CHILL INDEX
   HX - HEAT INDEX
  VSB - VISIBILITY